Weather History for KLNS - April, 2014

Change the Weather History Date:

Friday, April 25, 2014

  Actual Average Record
Temperature  
Mean Temperature 49 °F -  
Max Temperature 63 °F 65 °F 81 °F (2011)
Min Temperature 36 °F 42 °F 30 °F (2015)
Degree Days  
Heating Degree Days 16    
Moisture  
Dew Point 32 °F    
Average Humidity 58    
Maximum Humidity 86    
Minimum Humidity 28    
Precipitation  
Precipitation 0.16 in - - ()
Sea Level Pressure  
Sea Level Pressure 29.91 in    
Wind  
Wind Speed 7 mph (SE)    
Max Wind Speed 18 mph    
Max Gust Speed -    
Visibility 9 miles    
Events Rain    
Averages and records for this station are not official NWS values.
T = Trace of Precipitation, MM = Missing Value Source: NWS Daily Summary

Daily Weather History Graph

Daily Weather History Graph

Search for Another Location

Airport or City:

Trip Planner

Search our weather history database for the weather conditions in past years. The results will help you decide how hot, cold, wet, or windy it might be!

Date:

Astronomy

Apr. 25, 2014 Rise Set
Actual Time 6:12 AM EDT 7:54 PM EDT
Civil Twilight 5:44 AM EDT 8:22 PM EDT
Nautical Twilight 5:09 AM EDT 8:58 PM EDT
Astronomical Twilight 4:31 AM EDT 9:35 PM EDT
Moon 3:59 AM EDT (4/25) 4:13 PM EDT (4/25)
Length of Visible Light 14h 38m
Length of Day
13h 41m
Waning Crescent, 15% of the Moon is Illuminated
Apr 25
Waning Crescent
Apr 29
New
May 6
First Quarter
May 14
Full
May 21
Last Quarter

Hourly Weather History & Observations

Time (EDT) Temp. Windchill Dew Point Humidity Pressure Visibility Wind Dir Wind Speed Gust Speed Precip Events Conditions
12:53 AM 41.0 °F 39.0 °F 25.0 °F 53% 30.04 in 10.0 mi SE 3.5 mph - N/A   Clear
1:53 AM 43.0 °F - 21.9 °F 43% 30.03 in 10.0 mi Calm Calm - N/A   Clear
2:53 AM 39.0 °F 36.8 °F 25.0 °F 57% 30.01 in 10.0 mi East 3.5 mph - N/A   Clear
3:53 AM 37.9 °F - 25.0 °F 60% 30.01 in 10.0 mi Calm Calm - N/A   Clear
4:53 AM 37.9 °F - 23.0 °F 55% 30.02 in 10.0 mi Calm Calm - N/A   Clear
5:53 AM 36.0 °F 32.1 °F 27.0 °F 70% 30.02 in 10.0 mi East 4.6 mph - N/A   Clear
6:53 AM 37.9 °F 34.4 °F 28.0 °F 68% 30.03 in 10.0 mi SSE 4.6 mph - N/A   Mostly Cloudy
7:53 AM 39.0 °F 35.7 °F 32.0 °F 76% 30.03 in 10.0 mi East 4.6 mph - N/A   Mostly Cloudy
8:53 AM 46.0 °F 43.1 °F 28.9 °F 51% 30.01 in 10.0 mi ESE 5.8 mph - N/A   Overcast
9:53 AM 52.0 °F - 27.0 °F 38% 30.00 in 10.0 mi SE 10.4 mph - N/A   Clear
10:53 AM 55.0 °F - 26.1 °F 33% 29.98 in 10.0 mi SE 11.5 mph - N/A   Clear
11:53 AM 59.0 °F - 26.1 °F 28% 29.96 in 10.0 mi SE 15.0 mph - N/A   Clear
12:53 PM 61.0 °F - 28.0 °F 29% 29.91 in 10.0 mi SSE 13.8 mph - N/A   Clear
1:53 PM 62.1 °F - 30.9 °F 31% 29.87 in 10.0 mi SE 17.3 mph - N/A   Clear
2:53 PM 62.1 °F - 33.1 °F 34% 29.83 in 10.0 mi SE 18.4 mph - N/A   Clear
3:53 PM 60.1 °F - 33.1 °F 36% 29.80 in 10.0 mi SE 18.4 mph - N/A   Partly Cloudy
4:53 PM 57.9 °F - 30.0 °F 35% 29.80 in 10.0 mi SSE 13.8 mph - 0.00 in   Overcast
5:53 PM 51.1 °F - 41.0 °F 68% 29.84 in 4.0 mi SSW 5.8 mph - 0.04 in Rain Rain
6:37 PM 48.0 °F - 43.0 °F 83% 29.83 in 2.5 mi SE 10.4 mph - N/A Rain Heavy Rain
6:53 PM 46.9 °F - 42.1 °F 83% 29.80 in 4.0 mi ESE 13.8 mph - N/A Rain Rain
7:53 PM 46.0 °F 39.9 °F 37.9 °F 73% 29.77 in 10.0 mi ESE 13.8 mph - 0.04 in   Overcast
8:53 PM 46.0 °F 41.4 °F 39.9 °F 79% 29.77 in 10.0 mi ESE 9.2 mph - 0.03 in Rain Light Rain
9:53 PM 46.0 °F 41.4 °F 42.1 °F 86% 29.78 in 10.0 mi ESE 9.2 mph - 0.02 in Rain Light Rain
10:53 PM 46.0 °F 43.1 °F 42.1 °F 86% 29.75 in 10.0 mi East 5.8 mph - 0.02 in   Overcast
11:53 PM 46.0 °F 44.8 °F 42.1 °F 86% 29.75 in 10.0 mi ENE 3.5 mph - 0.01 in   Overcast